Back to catalog

CZ-2D DEB

AliveSSO
NORAD 43487·DEBRIS·🇨🇳 China

Launched Jun 2, 2018 from Jiuquan Satellite Launch Center

Loading…

Next Passes (next 24 hours)

TLE

FreshSource: Space-Track

Epoch: Sep 14, 2026, 11:18 UTC

1 43487U 18048D   26257.47122477  .00002243  00000-0  23256-3 0  9995
2 43487  97.6147 261.0523 0026997 123.9168 236.4623 14.90701948447345

Track CZ-2D DEB in real time with AllMySat

Download on the App Store